Winnemucca, NV

9:37 AM PST on February 27, 2017 (GMT -0800)
Nevada Desert | | Change Station
Active Advisory: Flood Warning

Elev 4367 ft 40.89 °N, 117.77 °W | Updated 5 seconds ago

Partly Cloudy
Partly Cloudy
31.2 °F
Feels Like 31 °F
N
0.0
Wind Variable Wind from SW
Gusts 0.0 mph

Today
High -- | Low -- °F
--% Chance of Precip.
Yesterday
High -- | Low -- °F
Precip. -- in
Pressure 29.86 in
Visibility 10.0 miles
Clouds Clear
Windchill 31 °F
Dew Point 18 °F
Humidity 58%
Rainfall 0.00 in
Snow Depth Not available.
6:27 AM 5:40 PM
New Moon, 2% visible
METAR KLOL 271653Z AUTO 05003KT 10SM CLR 00/M09 A2981 RMK AO2 SLP111 T00001089
Pressure 29.86 in
Visibility 10.0 miles
Clouds Clear
Windchill 31 °F
Dew Point 18 °F
Humidity 58%
Rainfall 0.00 in
Snow Depth Not available.
6:27 AM 5:40 PM
New Moon, 2% visible
METAR KLOL 271653Z AUTO 05003KT 10SM CLR 00/M09 A2981 RMK AO2 SLP111 T00001089

Get Your Daily Forecast Email!

Thanks for signing up!

Be on the lookout for a verification email in your inbox.

You'll start receiving the daily forecast at 8 AM.

×

10-Day Weather Forecast

Almanac

Astronomy

Feb. 27, 2017 Rise Set
Actual Time
Civil Twilight
Nautical Twilight
Astronomical Twilight
Moon
Length of Visible Light
Length of Day
Tomorrow will be .
, % of the Moon is Illuminated

Today's Extremes

State Highs State Lows

Community

WunderPhotos

Upload Photos

1,962,540 photos uploaded!

WunderBlog® & News

Nearby

Air Quality

  Air Quality AQ Index Pollutant
Not available.

Snow Depth

Station Depth Elevation

Earthquake Activity

City Distance Mag. Time & Date
Minimum magnitude displayed is 2.5.

Coastal Water Temperatures

Place Temperature

Stations

Nearby Weather Stations

Station Location Temp. Windchill Dew Point Humidity Wind Precip. Elev Updated Type
                   

Watches & Warnings

Flood Warning
Issued: 9:29 PM PST Feb. 26, 2017 – National Weather Service

The Flood Warning continues for
the Humboldt River at Comus.
* Until further notice.
* At 8:15 PM Sunday the stage was 10.9 feet.
* Flood stage is 9.5 feet.
* Moderate flooding is occurring and moderate flooding is forecast.
* Forecast... the river will remain near 10.8 feet
* impact... at 11.0 feet... moderate to major lowland flooding
throughout reach. Many rural roads near river flooded. Minor to
moderate flooding in lower portions of Winnemucca. Main area
impacted is between uprr and Golconda street on west and second
street on the east, beneath i80. 3800 cfs, about a 14 year flood, 7
percent chance any year. Similar to floods of June 1921 and April
1969.


Lat... Lon 4103 11702 4070 11705 4090 11762 4087 11800 4118 11795


Bb